EN

Hourly Weather Dzial

Today, 26 October, Monday

Time Temperature Precipitation Wind Pressure Humidity
00:00 +9°C° 0 mm 1 mps 701 mmHg 94%
01:00 +9°C° 0 mm 1 mps 701 mmHg 94%
02:00 +9°C° 0 mm 1 mps 701 mmHg 94%
03:00 +9°C° 0 mm 1 mps 700 mmHg 95%
04:00 +8°C° 0 mm 1 mps 700 mmHg 95%
05:00 +9°C° 0 mm 1 mps 700 mmHg 94%
06:00 +8°C° 0 mm 2 mps 700 mmHg 94%
07:00 +8°C° 0 mm 2 mps 700 mmHg 94%
08:00 +10°C° 0 mm 2 mps 700 mmHg 87%
09:00 +12°C° 0 mm 2 mps 700 mmHg 81%
10:00 +13°C° 0 mm 3 mps 700 mmHg 75%
11:00 +13°C° 0 mm 3 mps 700 mmHg 72%
12:00 +14°C° 0 mm 3 mps 700 mmHg 70%
13:00 +14°C° 0 mm 3 mps 700 mmHg 67%
14:00 +14°C° 0 mm 2 mps 700 mmHg 72%
15:00 +13°C° 0 mm 2 mps 699 mmHg 77%
16:00 +12°C° 0 mm 2 mps 699 mmHg 83%
17:00 +12°C° 0 mm 2 mps 699 mmHg 85%
18:00 +12°C° 0 mm 2 mps 699 mmHg 87%
19:00 +10°C° 0 mm 2 mps 700 mmHg 90%
20:00 +10°C° 0 mm 2 mps 700 mmHg 91%
21:00 +10°C° 0 mm 2 mps 700 mmHg 91%
22:00 +10°C° 0 mm 2 mps 700 mmHg 92%
23:00 +9°C° 0 mm 2 mps 700 mmHg 93%

Tomorrow, 27 October, Tuesday

Time Temperature Precipitation Wind Pressure Humidity
00:00 +9°C° 0 mm 2 mps 700 mmHg 93%
01:00 +9°C° 0 mm 2 mps 700 mmHg 94%
02:00 +9°C° 0 mm 2 mps 700 mmHg 94%
03:00 +9°C° 0 mm 2 mps 700 mmHg 93%
04:00 +8°C° 0 mm 2 mps 700 mmHg 93%
05:00 +8°C° 0 mm 2 mps 700 mmHg 93%
06:00 +8°C° 0 mm 2 mps 700 mmHg 93%
07:00 +8°C° 0 mm 2 mps 700 mmHg 92%
08:00 +10°C° 0 mm 2 mps 701 mmHg 85%
09:00 +13°C° 0 mm 2 mps 701 mmHg 78%
10:00 +14°C° 0 mm 3 mps 702 mmHg 70%
11:00 +16°C° 0 mm 3 mps 702 mmHg 67%
12:00 +16°C° 0 mm 3 mps 702 mmHg 63%
13:00 +17°C° 0 mm 3 mps 702 mmHg 60%
14:00 +16°C° 0 mm 2 mps 701 mmHg 66%
15:00 +14°C° 0 mm 2 mps 701 mmHg 72%
16:00 +13°C° 0 mm 1 mps 701 mmHg 78%
17:00 +12°C° 0 mm 1 mps 701 mmHg 81%
18:00 +10°C° 0 mm 2 mps 701 mmHg 83%
19:00 +10°C° 0 mm 2 mps 701 mmHg 86%
20:00 +10°C° 0 mm 1 mps 702 mmHg 86%
21:00 +10°C° 0 mm 1 mps 702 mmHg 87%
22:00 +10°C° 0 mm 1 mps 702 mmHg 88%
23:00 +10°C° 0 mm 1 mps 702 mmHg 88%

Day after tomorrow, 28 October, Wednesday

Time Temperature Precipitation Wind Pressure Humidity
00:00 +10°C° 0 mm 1 mps 702 mmHg 89%
01:00 +9°C° 0 mm 1 mps 702 mmHg 89%
02:00 +9°C° 0 mm 1 mps 702 mmHg 89%
03:00 +9°C° 0 mm 1 mps 703 mmHg 89%
04:00 +8°C° 0 mm 0 mps 703 mmHg 88%
05:00 +8°C° 0 mm 0 mps 703 mmHg 88%
06:00 +8°C° 0 mm 0 mps 703 mmHg 88%
07:00 +8°C° 0 mm 0 mps 703 mmHg 88%
08:00 +10°C° 0 mm 0 mps 704 mmHg 81%
09:00 +12°C° 0 mm 0 mps 704 mmHg 75%
10:00 +13°C° 0 mm 0 mps 704 mmHg 68%
11:00 +14°C° 0 mm 0 mps 704 mmHg 66%
12:00 +16°C° 0 mm 1 mps 704 mmHg 64%
13:00 +18°C° 0 mm 1 mps 704 mmHg 62%
14:00 +15°C° 0 mm 1 mps 704 mmHg 69%
15:00 +13°C° 0 mm 0 mps 704 mmHg 76%
16:00 +12°C° 0 mm 0 mps 703 mmHg 83%
17:00 +11°C° 0 mm 0 mps 704 mmHg 86%
18:00 +11°C° 0 mm 1 mps 704 mmHg 89%
19:00 +10°C° 0 mm 1 mps 704 mmHg 91%
20:00 +10°C° 0 mm 1 mps 704 mmHg 92%
21:00 +10°C° 0 mm 1 mps 704 mmHg 92%
22:00 +9°C° 0 mm 1 mps 704 mmHg 93%
23:00 +9°C° 0 mm 1 mps 704 mmHg 93%

29 October, Thursday

Time Temperature Precipitation Wind Pressure Humidity
00:00 +9°C° 0 mm 1 mps 704 mmHg 93%
01:00 +9°C° 0 mm 1 mps 704 mmHg 93%
02:00 +8°C° 0 mm 1 mps 704 mmHg 93%
03:00 +8°C° 0 mm 1 mps 704 mmHg 93%
04:00 +8°C° 0 mm 1 mps 704 mmHg 93%
05:00 +8°C° 0 mm 1 mps 704 mmHg 92%
06:00 +8°C° 0 mm 1 mps 705 mmHg 91%
07:00 +8°C° 0 mm 1 mps 705 mmHg 90%
08:00 +10°C° 0 mm 1 mps 705 mmHg 83%
09:00 +12°C° 0 mm 1 mps 706 mmHg 76%
10:00 +12°C° 0 mm 0 mps 706 mmHg 69%
11:00 +14°C° 0 mm 1 mps 706 mmHg 65%
12:00 +15°C° 0 mm 1 mps 706 mmHg 62%
13:00 +15°C° 0 mm 1 mps 707 mmHg 58%
14:00 +14°C° 0 mm 1 mps 706 mmHg 66%
15:00 +12°C° 0 mm 1 mps 706 mmHg 73%
16:00 +11°C° 0 mm 1 mps 706 mmHg 81%
17:00 +10°C° 0 mm 1 mps 706 mmHg 84%
18:00 +10°C° 0 mm 1 mps 707 mmHg 86%
19:00 +9°C° 0 mm 1 mps 707 mmHg 88%
20:00 +9°C° 0 mm 1 mps 707 mmHg 89%
21:00 +8°C° 0 mm 1 mps 708 mmHg 90%
22:00 +8°C° 0 mm 1 mps 708 mmHg 90%
23:00 +8°C° 0 mm 1 mps 708 mmHg 90%

30 October, Friday

Time Temperature Precipitation Wind Pressure Humidity
00:00 +8°C° 0 mm 1 mps 708 mmHg 91%
01:00 +7°C° 0 mm 1 mps 708 mmHg 91%
02:00 +7°C° 0 mm 1 mps 708 mmHg 90%
03:00 +7°C° 0 mm 1 mps 708 mmHg 90%
04:00 +6°C° 0 mm 2 mps 708 mmHg 89%
05:00 +6°C° 0 mm 2 mps 709 mmHg 88%
06:00 +6°C° 0 mm 2 mps 709 mmHg 87%
07:00 +6°C° 0 mm 2 mps 709 mmHg 85%
08:00 +8°C° 0 mm 2 mps 709 mmHg 80%
09:00 +10°C° 0 mm 2 mps 709 mmHg 74%
10:00 +11°C° 0 mm 3 mps 710 mmHg 69%
11:00 +12°C° 0 mm 3 mps 710 mmHg 68%
12:00 +13°C° 0 mm 3 mps 710 mmHg 67%
13:00 +13°C° 0 mm 3 mps 710 mmHg 66%
14:00 +13°C° 0 mm 2 mps 710 mmHg 71%
15:00 +12°C° 0 mm 2 mps 710 mmHg 76%
16:00 +10°C° 0 mm 2 mps 710 mmHg 80%
17:00 +10°C° 0 mm 2 mps 710 mmHg 82%
18:00 +9°C° 0 mm 2 mps 710 mmHg 84%
19:00 +9°C° 0 mm 2 mps 710 mmHg 85%
20:00 +8°C° 0 mm 2 mps 710 mmHg 84%
21:00 +8°C° 0 mm 2 mps 710 mmHg 83%
22:00 +8°C° 0 mm 2 mps 710 mmHg 82%
23:00 +8°C° 0 mm 2 mps 710 mmHg 82%

31 October, Saturday

Time Temperature Precipitation Wind Pressure Humidity
00:00 +8°C° 0 mm 2 mps 710 mmHg 81%
01:00 +8°C° 0 mm 2 mps 710 mmHg 81%
02:00 +7°C° 0 mm 2 mps 709 mmHg 80%
03:00 +8°C° 0 mm 1 mps 709 mmHg 80%
04:00 +8°C° 0 mm 1 mps 709 mmHg 80%
05:00 +8°C° 0 mm 1 mps 709 mmHg 79%
06:00 +8°C° 0 mm 1 mps 709 mmHg 78%
07:00 +8°C° 0 mm 1 mps 709 mmHg 77%
Show more